Regional Weather Roundup
Issued by NWS

Home | Current Version | Previous Version | Text Only | Print | Product List | Glossary Off
Versions: 1 2 3 4 5 6 7 8 9 10 11 12 13 14 15 16 17 18 19 20 21 22 23 24 25 26 27 28 29 30 31 32 33 34 35 36 37 38 39 40 41 42 43 44 45 46 47 48 49 50

000
ASUS44 KMEG 292100
RWRTN
TENNESSEE HOURLY STATE WEATHER ROUNDUP
NATIONAL WEATHER SERVICE MEMPHIS TN
400 PM CDT WED JUL 29 2015

TNZ002-004-019-021-049-052-054-088>092-292200-
WEST TENNESSEE

CITY           SKY/WX    TMP DP  RH WIND       PRES   REMARKS
MEMPHIS INTL   PTSUNNY   98  74  45 NW8       29.97F HX 109
NWS MEMPHIS      N/A     97 N/A N/A MISG        N/A
JACKSON        SUNNY     98  75  47 NW7       29.96F HX 110
DYERSBURG        N/A    N/A N/A N/A MISG        N/A
PARIS          MOSUNNY   91  79  66 W6        29.98S HX 107
LEXINGTON      SUNNY     95  75  52 CALM      29.96F HX 107
$$

TNZ008-025-027-028-033-062-065-066-292200-
NORTH MIDDLE TENNESSEE

CITY           SKY/WX    TMP DP  RH WIND       PRES   REMARKS
NASHVILLE      PTSUNNY   92  76  59 CALM      29.97F HX 104
CLARKSVILLE    SUNNY     91  77  63 W5        29.97F HX 104
CROSSVILLE     MOSUNNY   89  71  55 N8        30.04F HX  95
$$

TNZ061-075-076-078-094-096-097-292200-
SOUTH MIDDLE TENNESSEE

CITY           SKY/WX    TMP DP  RH WIND       PRES   REMARKS
FAYETTEVILLE   MOSUNNY   90  75  62 SW8       29.99F HX 100
TULLAHOMA      SUNNY     90  75  62 N6        30.00F HX 100
WINCHESTER     MOSUNNY   90  75  62 N7        29.98F HX 100
MCMINNVILLE    SUNNY     90  79  70 N8        29.99F HX 105
COLUMBIA       SUNNY     90  79  70 CALM      29.97F HX 105
SHELBYVILLE    SUNNY     93  79  62 VRB6      29.98F HX 110
$$

TNZ017-018-042-046-047-292200-
NORTHEAST TENNESSEE

CITY           SKY/WX    TMP DP  RH WIND       PRES   REMARKS
TRI CITIES     MOSUNNY   90  69  50 VRB6      30.00F HX  94
ELIZABETHTON   CLEAR     88  70  55 CALM      30.01S HX  92
$$

TNZ012-013-036-069-073-074-292200-
CENTRAL EAST TENNESSEE

CITY           SKY/WX    TMP DP  RH WIND       PRES   REMARKS
KNOXVILLE      PTSUNNY   92  68  45 N8        29.97F HX  96
OAK RIDGE      MOSUNNY   91  71  51 E5        29.98F HX  97
GATLINBURG       N/A     90  68  48 W5        29.97F HX  93
$$

TNZ083-085-099-292200-
SOUTHEAST TENNESSEE

CITY           SKY/WX    TMP DP  RH WIND       PRES   REMARKS
CHATTANOOGA    MOSUNNY   94  73  50 N9        29.94F HX 103
$$

SKY/WX REPORTED AS FAIR MEANS FEW OR NO CLOUDS BELOW
12 THOUSAND FEET.




USA.gov is the U.S. government's official web portal to all federal, state and local government web resources and services.